OMRK

Ras Al Khaimah International Airport

Airport
ICAO code
OMRK
IATA Code
RKT
Summary
ICAO Region
MID
ICAO Territory
Location

Ras Al Khaimah,

Serving
Ras Al Khaimah
Elevation
102 ft
Coordinates
25° 36' 57" N , 55° 56' 22" E
KCC
Metar
OMRK 160800Z 11013KT 7000 TSRA FEW030 FEW040CB 23/19 Q1008 A2976

Description

Khaimah International Airport is located 15 km

Climatology

Hot Desert Climate (Köppen climate classification BWh) - Hot desert climates are typically found in the subtropics where there is unbroken sunshine for the whole year due to the stable descending air and high pressure, little or no precipitation. Maximum temperatures of 40°C to 45°C are not uncommon, particularly during the warmer months of the year. During colder periods of the year, night-time temperatures can drop to freezing or below due to the exceptional radiation loss under the clear skies. However, very rarely do temperatures drop far below freezing.

Runways

Designator Length Width Surface Rops
16/34 3760 45 ASP Yes/Yes

Airport map

Aerial View

SKYbrary Partners:

Safety knowledge contributed by: